| time (UTC) | temp C | wind direction | speed KPH | gust KPH | rain 1hr cm | rain 24hr cm | rain mn cm | humidity % | barometer mb |
| 20260507093031 | 18 | 66 | 22.5 | 27.4 | 0.00 | 0.00 | 0.00 | 83 | 1014.1 |
| 20260507090030 | 18 | 61 | 17.7 | 25.7 | 0.00 | 0.00 | 0.00 | 86 | 1014.4 |
| 20260507084531 | 18 | 61 | 8.0 | 19.3 | 0.00 | 0.00 | 0.00 | 86 | 1014.6 |
| 20260507083030 | 18 | 78 | 17.7 | 24.1 | 0.00 | 0.00 | 0.00 | 85 | 1014.6 |
| 20260507081540 | 18 | 67 | 17.7 | 25.7 | 0.00 | 0.00 | 0.00 | 85 | 1014.7 |
| 20260507080027 | 18 | 65 | 14.5 | 22.5 | 0.00 | 0.00 | 0.00 | 85 | 1015.2 |
| 20260507074545 | 18 | 81 | 11.3 | 22.5 | 0.00 | 0.00 | 0.00 | 86 | 1015.5 |
| 20260507073031 | 18 | 94 | 14.5 | 17.7 | 0.00 | 0.00 | 0.00 | 86 | 1015.4 |
| 20260507071529 | 18 | 80 | 12.9 | 17.7 | 0.00 | 0.00 | 0.00 | 86 | 1015.4 |
| 20260507070032 | 18 | 97 | 11.3 | 16.1 | 0.00 | 0.00 | 0.00 | 86 | 1015.8 |
| 20260507064531 | 19 | 102 | 4.8 | 12.9 | 0.00 | 0.00 | 0.00 | 85 | 1015.6 |
| 20260507063030 | 19 | 91 | 4.8 | 12.9 | 0.00 | 0.00 | 0.00 | 84 | 1015.5 |
| 20260507061534 | 20 | 110 | 6.4 | 14.5 | 0.00 | 0.00 | 0.00 | 83 | 1015.7 |
| 20260507060032 | 20 | 109 | 3.2 | 16.1 | 0.00 | 0.00 | 0.00 | 83 | 1015.2 |
| 20260507054528 | 20 | 71 | 3.2 | 11.3 | 0.00 | 0.00 | 0.00 | 83 | 1015.2 |
| 20260507053032 | 20 | 53 | 3.2 | 9.7 | 0.00 | 0.00 | 0.00 | 83 | 1015.2 |
| 20260507051532 | 20 | 42 | 6.4 | 11.3 | 0.00 | 0.00 | 0.00 | 82 | 1014.7 |
| 20260507050030 | 20 | 37 | 6.4 | 12.9 | 0.00 | 0.00 | 0.00 | 83 | 1014.9 |
| 20260507044535 | 20 | 47 | 6.4 | 14.5 | 0.00 | 0.00 | 0.00 | 83 | 1014.2 |
| 20260507043035 | 21 | 76 | 9.7 | 20.9 | 0.00 | 0.00 | 0.00 | 82 | 1014.0 |
| 20260507041531 | 21 | 49 | 14.5 | 22.5 | 0.00 | 0.00 | 0.00 | 81 | 1013.3 |
| 20260507040039 | 21 | 52 | 17.7 | 24.1 | 0.00 | 0.00 | 0.00 | 80 | 1013.3 |
| 20260507034533 | 22 | 75 | 14.5 | 33.8 | 0.00 | 0.00 | 0.00 | 80 | 1013.2 |
| 20260507033034 | 22 | 45 | 11.3 | 19.3 | 0.00 | 0.00 | 0.00 | 82 | 1013.9 |
| 20260507031539 | 22 | 63 | 12.9 | 22.5 | 0.00 | 0.00 | 0.00 | 81 | 1012.9 |
| 20260507030047 | 22 | 80 | 12.9 | 19.3 | 0.00 | 0.00 | 0.00 | 79 | 1013.0 |
| 20260507024533 | 23 | 53 | 12.9 | 20.9 | 0.00 | 0.00 | 0.00 | 77 | 1012.6 |
| 20260507023031 | 23 | 45 | 14.5 | 20.9 | 0.00 | 0.00 | 0.00 | 78 | 1012.4 |
| 20260507021536 | 23 | 36 | 12.9 | 19.3 | 0.00 | 0.00 | 0.00 | 78 | 1012.2 |
| 20260507020035 | 23 | 28 | 11.3 | 17.7 | 0.00 | 0.00 | 0.00 | 78 | 1012.3 |
| 20260507014548 | 23 | 40 | 9.7 | 19.3 | 0.00 | 0.00 | 0.00 | 77 | 1012.4 |
| 20260507013032 | 24 | 73 | 11.3 | 19.3 | 0.00 | 0.00 | 0.00 | 77 | 1012.2 |
| 20260507011535 | 24 | 43 | 12.9 | 19.3 | 0.00 | 0.00 | 0.00 | 76 | 1011.8 |
| 20260507010038 | 25 | 45 | 9.7 | 20.9 | 0.00 | 0.00 | 0.00 | 75 | 1011.3 |
| 20260507004533 | 25 | 47 | 14.5 | 19.3 | 0.00 | 0.00 | 0.00 | 75 | 1011.4 |
| 20260507003038 | 25 | 51 | 11.3 | 19.3 | 0.00 | 0.00 | 0.00 | 74 | 1011.2 |
| 20260507001535 | 26 | 32 | 12.9 | 22.5 | 0.00 | 0.00 | 0.00 | 73 | 1011.1 |
| 20260507000037 | 26 | 53 | 14.5 | 20.9 | 0.00 | 0.00 | 0.00 | 72 | 1011.2 |
| 20260506234534 | 27 | 37 | 20.9 | 32.2 | 0.00 | 0.00 | 0.00 | 71 | 1011.3 |
| 20260506233039 | 27 | 47 | 9.7 | 17.7 | 0.00 | 0.00 | 0.00 | 75 | 1010.8 |
| 20260506231535 | 27 | 46 | 14.5 | 20.9 | 0.00 | 0.00 | 0.00 | 74 | 1010.7 |
| 20260506230034 | 27 | 44 | 9.7 | 17.7 | 0.00 | 0.00 | 0.00 | 74 | 1010.8 |
| 20260506224535 | 27 | 51 | 9.7 | 14.5 | 0.00 | 0.00 | 0.00 | 76 | 1010.6 |
| 20260506223032 | 26 | 46 | 9.7 | 16.1 | 0.00 | 0.00 | 0.00 | 78 | 1010.6 |
| 20260506221532 | 26 | 53 | 11.3 | 16.1 | 0.00 | 0.00 | 0.00 | 77 | 1010.4 |
| 20260506220038 | 26 | 62 | 11.3 | 19.3 | 0.00 | 0.00 | 0.00 | 78 | 1010.4 |
| 20260506214536 | 27 | 61 | 14.5 | 19.3 | 0.00 | 0.00 | 0.00 | 77 | 1010.8 |
| 20260506213033 | 27 | 56 | 12.9 | 20.9 | 0.00 | 0.00 | 0.00 | 78 | 1010.8 |
| 20260506211537 | 27 | 59 | 11.3 | 19.3 | 0.00 | 0.00 | 0.00 | 79 | 1011.0 |
| 20260506210039 | 26 | 65 | 14.5 | 20.9 | 0.00 | 0.00 | 0.00 | 80 | 1010.9 |
| 20260506204543 | 26 | 65 | 14.5 | 24.1 | 0.00 | 0.00 | 0.00 | 80 | 1011.0 |
| 20260506203041 | 27 | 71 | 17.7 | 24.1 | 0.00 | 0.00 | 0.00 | 80 | 1011.3 |
| 20260506201544 | 27 | 43 | 11.3 | 24.1 | 0.00 | 0.00 | 0.00 | 80 | 1011.3 |
| 20260506200040 | 27 | 62 | 14.5 | 27.4 | 0.00 | 0.00 | 0.00 | 81 | 1011.5 |
| 20260506194550 | 26 | 59 | 19.3 | 25.7 | 0.00 | 0.00 | 0.00 | 83 | 1011.7 |
| 20260506193041 | 26 | 63 | 19.3 | 25.7 | 0.00 | 0.00 | 0.00 | 84 | 1011.7 |
| 20260506191548 | 26 | 62 | 14.5 | 25.7 | 0.00 | 0.00 | 0.00 | 85 | 1012.0 |
| 20260506190040 | 26 | 51 | 14.5 | 20.9 | 0.00 | 0.00 | 0.00 | 85 | 1012.3 |
| 20260506184548 | 26 | 87 | 11.3 | 19.3 | 0.00 | 0.00 | 0.00 | 84 | 1012.3 |
| 20260506183049 | 25 | 70 | 12.9 | 19.3 | 0.00 | 0.00 | 0.00 | 88 | 1012.3 |
| 20260506181548 | 25 | 54 | 11.3 | 19.3 | 0.00 | 0.00 | 0.00 | 87 | 1012.5 |
| 20260506180104 | 25 | 65 | 11.3 | 14.5 | 0.00 | 0.00 | 0.00 | 89 | 1012.4 |
| 20260506174546 | 24 | 68 | 6.4 | 12.9 | 0.00 | 0.00 | 0.00 | 91 | 1012.4 |
| 20260506173039 | 24 | 55 | 6.4 | 12.9 | 0.00 | 0.00 | 0.00 | 91 | 1012.5 |
| 20260506171549 | 24 | 80 | 9.7 | 12.9 | 0.00 | 0.00 | 0.00 | 91 | 1012.2 |
| 20260506170104 | 24 | 46 | 4.8 | 9.7 | 0.00 | 0.00 | 0.00 | 89 | 1012.3 |
| 20260506164545 | 24 | 46 | 4.8 | 12.9 | 0.00 | 0.00 | 0.00 | 90 | 1012.1 |
| 20260506163111 | 24 | 85 | 9.7 | 14.5 | 0.00 | 0.00 | 0.00 | 90 | 1012.1 |
| 20260506161549 | 24 | 35 | 6.4 | 11.3 | 0.00 | 0.00 | 0.00 | 89 | 1012.0 |
| 20260506160048 | 24 | 64 | 6.4 | 12.9 | 0.00 | 0.00 | 0.00 | 91 | 1011.7 |
| 20260506154609 | 23 | 81 | 6.4 | 12.9 | 0.00 | 0.00 | 0.00 | 93 | 1011.5 |
| 20260506153107 | 23 | 77 | 6.4 | 8.0 | 0.00 | 0.00 | 0.00 | 93 | 1011.4 |
| 20260506151550 | 23 | 77 | 4.8 | 9.7 | 0.00 | 0.00 | 0.00 | 94 | 1011.3 |
| 20260506150053 | 23 | 105 | 4.8 | 6.4 | 0.00 | 0.00 | 0.00 | 93 | 1011.1 |
| 20260506144555 | 23 | 142 | 3.2 | 9.7 | 0.00 | 0.00 | 0.00 | 92 | 1011.1 |
| 20260506143101 | 23 | 95 | 4.8 | 11.3 | 0.00 | 0.00 | 0.00 | 91 | 1011.1 |
| 20260506141555 | 23 | 105 | 3.2 | 8.0 | 0.00 | 0.00 | 0.00 | 91 | 1010.9 |
| 20260506140059 | 23 | 145 | 1.6 | 6.4 | 0.00 | 0.00 | 0.00 | 92 | 1010.6 |
| 20260506134601 | 23 | 145 | 1.6 | 6.4 | 0.00 | 0.00 | 0.00 | 92 | 1010.6 |
| 20260506133057 | 23 | 132 | 4.8 | 12.9 | 0.00 | 0.00 | 0.00 | 93 | 1010.3 |
| 20260506131551 | 23 | 127 | 6.4 | 11.3 | 0.00 | 0.00 | 0.00 | 93 | 1010.1 |
| 20260506130057 | 23 | 135 | 8.0 | 14.5 | 0.00 | 0.00 | 0.00 | 93 | 1010.1 |
| 20260506124553 | 22 | 111 | 9.7 | 14.5 | 0.00 | 0.00 | 0.00 | 93 | 1009.9 |
| 20260506123027 | 22 | 90 | 8.0 | 12.9 | 0.00 | 0.00 | 0.00 | 93 | 1009.8 |
| 20260506121530 | 23 | 114 | 11.3 | 17.7 | 0.00 | 0.00 | 0.00 | 93 | 1009.6 |
| 20260506120027 | 23 | 111 | 11.3 | 19.3 | 0.00 | 0.00 | 0.00 | 92 | 1009.4 |
| 20260506114533 | 23 | 123 | 11.3 | 17.7 | 0.00 | 0.00 | 0.00 | 92 | 1009.3 |
| 20260506113028 | 23 | 129 | 14.5 | 19.3 | 0.00 | 0.00 | 0.00 | 91 | 1009.2 |
| 20260506111525 | 23 | 97 | 14.5 | 20.9 | 0.00 | 0.00 | 0.00 | 91 | 1009.4 |
| 20260506110031 | 23 | 126 | 14.5 | 24.1 | 0.00 | 0.00 | 0.00 | 90 | 1009.3 |
| 20260506104525 | 23 | 113 | 16.1 | 24.1 | 0.00 | 0.00 | 0.00 | 91 | 1009.3 |
| 20260506103029 | 23 | 111 | 11.3 | 22.5 | 0.00 | 0.00 | 0.00 | 91 | 1009.2 |
| 20260506101529 | 23 | 96 | 14.5 | 20.9 | 0.00 | 0.00 | 0.00 | 91 | 1009.1 |
| 20260506100025 | 23 | 109 | 11.3 | 20.9 | 0.00 | 0.00 | 0.00 | 90 | 1009.1 |
| 20260506094527 | 23 | 114 | 14.5 | 20.9 | 0.00 | 0.00 | 0.00 | 90 | 1008.9 |